Tracking 23752 objects as of 23-Oct-2021
HD Live streaming from Space Station
objects crossing your sky now

SL-8 R/B

Track SL-8 R/B now!
10-day predictions


NORAD ID: 21131
Int'l Code: 1991-013B
Perigee: 923.1 km
Apogee: 1,016.9 km
Inclination: 82.8 °
Period: 104.3 minutes
Semi major axis: 7341 km
RCS: 7.7831 m2 (large)
Launch date: February 26, 1991
Source: Commonwealth of Independent States (former USSR) (CIS)
Launch site: PLESETSK MISSILE AND SPACE COMPLEX (PKMTR)

Note: This is a ROCKET BODY
aabbcc
Your satellite tracking list
Your tracking list is empty




NASA's NSSDC Master Catalog

Two Line Element Set (TLE):
1 21131U 91013B   21295.90182893  .00000062  00000-0  44491-4 0  9995
2 21131  82.8304  38.3573 0063890 187.2913 172.7323 13.80284347543761
Source of the keplerian elements: AFSPC